owner,sensor,date,latitude,longitude,vertical_datum,wind_speed,wind_to_direction,wind_speed_of_gust,qcFlag 
WAVCIS,ioos:station:WAVCIS:CSI06:1,2016-05-01T00:00:00Z,28.8667,-90.4833,10.0,9.27,88.0,,'11111222,11111222,99999999' 
WAVCIS,ioos:station:WAVCIS:CSI06:1,2016-05-01T01:00:00Z,28.8667,-90.4833,10.0,12.98,99.0,,'11111222,11111222,99999999' 
WAVCIS,ioos:station:WAVCIS:CSI06:1,2016-05-01T02:00:00Z,28.8667,-90.4833,10.0,15.01,92.0,,'11111222,11111222,99999999' 
WAVCIS,ioos:station:WAVCIS:CSI06:1,2016-05-01T03:00:00Z,28.8667,-90.4833,10.0,13.95,106.0,,'11111222,11111222,99999999' 
WAVCIS,ioos:station:WAVCIS:CSI06:1,2016-05-01T04:00:00Z,28.8667,-90.4833,10.0,12.25,111.0,,'11111222,11111222,99999999' 
WAVCIS,ioos:station:WAVCIS:CSI06:1,2016-05-01T05:00:00Z,28.8667,-90.4833,10.0,11.65,125.0,,'11111222,11111222,99999999' 
WAVCIS,ioos:station:WAVCIS:CSI06:1,2016-05-01T06:00:00Z,28.8667,-90.4833,10.0,10.33,128.0,,'11111222,11111222,99999999' 
WAVCIS,ioos:station:WAVCIS:CSI06:1,2016-05-01T07:00:00Z,28.8667,-90.4833,10.0,10.76,129.0,,'11111222,11111222,99999999' 
WAVCIS,ioos:station:WAVCIS:CSI06:1,2016-05-01T08:00:00Z,28.8667,-90.4833,10.0,10.39,137.0,,'11111222,11111222,99999999' 
WAVCIS,ioos:station:WAVCIS:CSI06:1,2016-05-01T09:00:00Z,28.8667,-90.4833,10.0,9.7,143.0,,'11111222,11111222,99999999' 
WAVCIS,ioos:station:WAVCIS:CSI06:1,2016-05-01T10:00:00Z,28.8667,-90.4833,10.0,8.68,145.0,,'11111222,11111222,99999999' 
WAVCIS,ioos:station:WAVCIS:CSI06:1,2016-05-01T11:00:00Z,28.8667,-90.4833,10.0,8.93,144.0,,'11111222,11111222,99999999' 
WAVCIS,ioos:station:WAVCIS:CSI06:1,2016-05-01T12:00:00Z,28.8667,-90.4833,10.0,8.81,144.0,,'11111222,11111222,99999999' 
WAVCIS,ioos:station:WAVCIS:CSI06:1,2016-05-01T13:00:00Z,28.8667,-90.4833,10.0,8.39,137.0,,'11111222,11111222,99999999' 
WAVCIS,ioos:station:WAVCIS:CSI06:1,2016-05-01T14:00:00Z,28.8667,-90.4833,10.0,8.98,135.0,,'11111222,11111222,99999999' 
WAVCIS,ioos:station:WAVCIS:CSI06:1,2016-05-01T15:00:00Z,28.8667,-90.4833,10.0,9.05,140.0,,'11111222,11111222,99999999' 
WAVCIS,ioos:station:WAVCIS:CSI06:1,2016-05-01T16:00:00Z,28.8667,-90.4833,10.0,8.69,143.0,,'11111222,11111222,99999999' 
WAVCIS,ioos:station:WAVCIS:CSI06:1,2016-05-01T17:00:00Z,28.8667,-90.4833,10.0,8.81,142.0,,'11111222,11111222,99999999' 
WAVCIS,ioos:station:WAVCIS:CSI06:1,2016-05-01T18:00:00Z,28.8667,-90.4833,10.0,5.062,118.0,,'11111222,11111222,99999999' 
WAVCIS,ioos:station:WAVCIS:CSI06:1,2016-05-01T19:00:00Z,28.8667,-90.4833,10.0,5.313,66.0,,'11111222,11111222,99999999' 
WAVCIS,ioos:station:WAVCIS:CSI06:1,2016-05-01T20:00:00Z,28.8667,-90.4833,10.0,6.872,6.0,,'11111222,11111222,99999999' 
WAVCIS,ioos:station:WAVCIS:CSI06:1,2016-05-01T21:00:00Z,28.8667,-90.4833,10.0,10.87,39.0,,'11111222,11111222,99999999' 
WAVCIS,ioos:station:WAVCIS:CSI06:1,2016-05-01T22:00:00Z,28.8667,-90.4833,10.0,13.01,14.0,,'11111222,11111222,99999999' 
WAVCIS,ioos:station:WAVCIS:CSI06:1,2016-05-01T23:00:00Z,28.8667,-90.4833,10.0,16.13,34.0,,'11111222,11111222,99999999' 
WAVCIS,ioos:station:WAVCIS:CSI06:1,2016-05-02T00:00:00Z,28.8667,-90.4833,10.0,14.85,50.0,,'11111222,11111222,99999999' 
WAVCIS,ioos:station:WAVCIS:CSI06:1,2016-05-02T01:00:00Z,28.8667,-90.4833,10.0,13.69,53.0,,'11111222,11111222,99999999' 
WAVCIS,ioos:station:WAVCIS:CSI06:1,2016-05-02T02:00:00Z,28.8667,-90.4833,10.0,14.77,57.0,,'11111222,11111222,99999999' 
WAVCIS,ioos:station:WAVCIS:CSI06:1,2016-05-02T03:00:00Z,28.8667,-90.4833,10.0,13.8,81.0,,'11111222,11111222,99999999' 
WAVCIS,ioos:station:WAVCIS:CSI06:1,2016-05-02T04:00:00Z,28.8667,-90.4833,10.0,11.31,98.0,,'11111222,11111222,99999999' 
WAVCIS,ioos:station:WAVCIS:CSI06:1,2016-05-02T05:00:00Z,28.8667,-90.4833,10.0,14.2,129.0,,'11111222,11111222,99999999' 
WAVCIS,ioos:station:WAVCIS:CSI06:1,2016-05-02T06:00:00Z,28.8667,-90.4833,10.0,15.18,138.0,,'11111222,11111222,99999999' 
WAVCIS,ioos:station:WAVCIS:CSI06:1,2016-05-02T07:00:00Z,28.8667,-90.4833,10.0,17.41,144.0,,'11111222,11111222,99999999' 
WAVCIS,ioos:station:WAVCIS:CSI06:1,2016-05-02T08:00:00Z,28.8667,-90.4833,10.0,12.39,161.0,,'11111222,11111222,99999999' 
WAVCIS,ioos:station:WAVCIS:CSI06:1,2016-05-02T09:00:00Z,28.8667,-90.4833,10.0,11.1,166.0,,'11111222,11111222,99999999' 
WAVCIS,ioos:station:WAVCIS:CSI06:1,2016-05-02T10:00:00Z,28.8667,-90.4833,10.0,8.98,155.0,,'11111222,11111222,99999999' 
WAVCIS,ioos:station:WAVCIS:CSI06:1,2016-05-02T11:00:00Z,28.8667,-90.4833,10.0,5.593,164.0,,'11111222,11111222,99999999' 
WAVCIS,ioos:station:WAVCIS:CSI06:1,2016-05-02T12:00:00Z,28.8667,-90.4833,10.0,7.15,175.0,,'11111222,11111222,99999999' 
WAVCIS,ioos:station:WAVCIS:CSI06:1,2016-05-02T13:00:00Z,28.8667,-90.4833,10.0,2.658,67.0,,'11111222,11111222,99999999' 
WAVCIS,ioos:station:WAVCIS:CSI06:1,2016-05-02T14:00:00Z,28.8667,-90.4833,10.0,1.532,58.0,,'11111222,11111222,99999999' 
WAVCIS,ioos:station:WAVCIS:CSI06:1,2016-05-02T15:00:00Z,28.8667,-90.4833,10.0,0.75,102.0,,'11111222,11111222,99999999' 
WAVCIS,ioos:station:WAVCIS:CSI06:1,2016-05-02T16:00:00Z,28.8667,-90.4833,10.0,0.228,79.0,,'11111222,11111222,99999999' 
WAVCIS,ioos:station:WAVCIS:CSI06:1,2016-05-02T17:00:00Z,28.8667,-90.4833,10.0,3.454,29.0,,'11111222,11111222,99999999' 
WAVCIS,ioos:station:WAVCIS:CSI06:1,2016-05-02T18:00:00Z,28.8667,-90.4833,10.0,3.271,43.0,,'11111222,11111222,99999999' 
WAVCIS,ioos:station:WAVCIS:CSI06:1,2016-05-02T19:00:00Z,28.8667,-90.4833,10.0,7.04,58.0,,'11111222,11111222,99999999' 
WAVCIS,ioos:station:WAVCIS:CSI06:1,2016-05-02T20:00:00Z,28.8667,-90.4833,10.0,4.072,46.0,,'11111222,11111222,99999999' 
WAVCIS,ioos:station:WAVCIS:CSI06:1,2016-05-02T21:00:00Z,28.8667,-90.4833,10.0,4.491,16.0,,'11111222,11111222,99999999' 
WAVCIS,ioos:station:WAVCIS:CSI06:1,2016-05-03T09:00:00Z,28.8667,-90.4833,10.0,3.1,40.0,3.6,'11111222,11111222,11111222' 
WAVCIS,ioos:station:WAVCIS:CSI06:1,2016-05-04T13:00:00Z,28.8667,-90.4833,10.0,12.4,10.0,14.9,'11111222,11111222,11111222' 
WAVCIS,ioos:station:WAVCIS:CSI06:1,2016-05-04T14:00:00Z,28.8667,-90.4833,10.0,9.76,11.0,,'11111222,11111222,99999999' 
WAVCIS,ioos:station:WAVCIS:CSI06:1,2016-05-04T15:00:00Z,28.8667,-90.4833,10.0,8.45,12.0,,'11111222,11111222,99999999' 
WAVCIS,ioos:station:WAVCIS:CSI06:1,2016-05-04T16:00:00Z,28.8667,-90.4833,10.0,8.5,14.0,,'11111222,11111222,99999999' 
WAVCIS,ioos:station:WAVCIS:CSI06:1,2016-05-04T17:00:00Z,28.8667,-90.4833,10.0,7.26,12.0,,'11111222,11111222,99999999' 
WAVCIS,ioos:station:WAVCIS:CSI06:1,2016-05-04T18:00:00Z,28.8667,-90.4833,10.0,5.678,349.0,,'11111222,11111222,99999999' 
WAVCIS,ioos:station:WAVCIS:CSI06:1,2016-05-04T19:00:00Z,28.8667,-90.4833,10.0,6.012,343.0,,'11111222,11111222,99999999' 
WAVCIS,ioos:station:WAVCIS:CSI06:1,2016-05-04T20:00:00Z,28.8667,-90.4833,10.0,4.402,340.0,,'11111222,11111222,99999999' 
WAVCIS,ioos:station:WAVCIS:CSI06:1,2016-05-04T21:00:00Z,28.8667,-90.4833,10.0,6.847,310.0,,'11111222,11111222,99999999' 
WAVCIS,ioos:station:WAVCIS:CSI06:1,2016-05-04T22:00:00Z,28.8667,-90.4833,10.0,7.53,310.0,,'11111222,11111222,99999999' 
WAVCIS,ioos:station:WAVCIS:CSI06:1,2016-05-04T23:00:00Z,28.8667,-90.4833,10.0,8.84,316.0,,'11111222,11111222,99999999' 
WAVCIS,ioos:station:WAVCIS:CSI06:1,2016-05-05T00:00:00Z,28.8667,-90.4833,10.0,9.47,315.0,,'11111222,11111222,99999999' 
WAVCIS,ioos:station:WAVCIS:CSI06:1,2016-05-05T01:00:00Z,28.8667,-90.4833,10.0,9.25,319.0,,'11111222,11111222,99999999' 
WAVCIS,ioos:station:WAVCIS:CSI06:1,2016-05-05T02:00:00Z,28.8667,-90.4833,10.0,9.26,324.0,,'11111222,11111222,99999999' 
WAVCIS,ioos:station:WAVCIS:CSI06:1,2016-05-05T03:00:00Z,28.8667,-90.4833,10.0,8.0,329.0,,'11111222,11111222,99999999' 
WAVCIS,ioos:station:WAVCIS:CSI06:1,2016-05-05T04:00:00Z,28.8667,-90.4833,10.0,7.71,310.0,,'11111222,11111222,99999999' 
WAVCIS,ioos:station:WAVCIS:CSI06:1,2016-05-05T05:00:00Z,28.8667,-90.4833,10.0,5.731,307.0,,'11111222,11111222,99999999' 
WAVCIS,ioos:station:WAVCIS:CSI06:1,2016-05-05T06:00:00Z,28.8667,-90.4833,10.0,6.167,292.0,,'11111222,11111222,99999999' 
WAVCIS,ioos:station:WAVCIS:CSI06:1,2016-05-05T07:00:00Z,28.8667,-90.4833,10.0,8.13,284.0,,'11111222,11111222,99999999' 
WAVCIS,ioos:station:WAVCIS:CSI06:1,2016-05-05T08:00:00Z,28.8667,-90.4833,10.0,8.92,286.0,,'11111222,11111222,99999999' 
WAVCIS,ioos:station:WAVCIS:CSI06:1,2016-05-05T09:00:00Z,28.8667,-90.4833,10.0,9.35,284.0,,'11111222,11111222,99999999' 
WAVCIS,ioos:station:WAVCIS:CSI06:1,2016-05-05T10:00:00Z,28.8667,-90.4833,10.0,9.43,282.0,,'11111222,11111222,99999999' 
WAVCIS,ioos:station:WAVCIS:CSI06:1,2016-05-05T11:00:00Z,28.8667,-90.4833,10.0,9.14,286.0,,'11111222,11111222,99999999' 
WAVCIS,ioos:station:WAVCIS:CSI06:1,2016-05-05T12:00:00Z,28.8667,-90.4833,10.0,10.27,302.0,,'11111222,11111222,99999999' 
WAVCIS,ioos:station:WAVCIS:CSI06:1,2016-05-05T13:00:00Z,28.8667,-90.4833,10.0,9.85,315.0,,'11111222,11111222,99999999' 
WAVCIS,ioos:station:WAVCIS:CSI06:1,2016-05-05T14:00:00Z,28.8667,-90.4833,10.0,8.63,324.0,,'11111222,11111222,99999999' 
WAVCIS,ioos:station:WAVCIS:CSI06:1,2016-05-05T15:00:00Z,28.8667,-90.4833,10.0,6.757,321.0,,'11111222,11111222,99999999' 
WAVCIS,ioos:station:WAVCIS:CSI06:1,2016-05-05T16:00:00Z,28.8667,-90.4833,10.0,5.544,325.0,,'11111222,11111222,99999999' 
WAVCIS,ioos:station:WAVCIS:CSI06:1,2016-05-05T17:00:00Z,28.8667,-90.4833,10.0,5.069,331.0,,'11111222,11111222,99999999' 
WAVCIS,ioos:station:WAVCIS:CSI06:1,2016-05-05T18:00:00Z,28.8667,-90.4833,10.0,4.612,338.0,,'11111222,11111222,99999999' 
WAVCIS,ioos:station:WAVCIS:CSI06:1,2016-05-05T19:00:00Z,28.8667,-90.4833,10.0,2.539,10.0,,'11111222,11111222,99999999' 
WAVCIS,ioos:station:WAVCIS:CSI06:1,2016-05-05T20:00:00Z,28.8667,-90.4833,10.0,1.685,304.0,,'11111222,11111222,99999999' 
WAVCIS,ioos:station:WAVCIS:CSI06:1,2016-05-05T21:00:00Z,28.8667,-90.4833,10.0,2.185,282.0,,'11111222,11111222,99999999' 
WAVCIS,ioos:station:WAVCIS:CSI06:1,2016-05-05T22:00:00Z,28.8667,-90.4833,10.0,8.35,316.0,,'11111222,11111222,99999999' 
WAVCIS,ioos:station:WAVCIS:CSI06:1,2016-05-05T23:00:00Z,28.8667,-90.4833,10.0,9.14,289.0,,'11111222,11111222,99999999' 
WAVCIS,ioos:station:WAVCIS:CSI06:1,2016-05-06T00:00:00Z,28.8667,-90.4833,10.0,9.22,297.0,,'11111222,11111222,99999999' 
WAVCIS,ioos:station:WAVCIS:CSI06:1,2016-05-06T01:00:00Z,28.8667,-90.4833,10.0,8.84,326.0,,'11111222,11111222,99999999' 
WAVCIS,ioos:station:WAVCIS:CSI06:1,2016-05-06T02:00:00Z,28.8667,-90.4833,10.0,10.45,339.0,,'11111222,11111222,99999999' 
WAVCIS,ioos:station:WAVCIS:CSI06:1,2016-05-06T03:00:00Z,28.8667,-90.4833,10.0,8.25,348.0,,'11111222,11111222,99999999' 
WAVCIS,ioos:station:WAVCIS:CSI06:1,2016-05-06T04:00:00Z,28.8667,-90.4833,10.0,7.19,359.0,,'11111222,11111222,99999999' 
WAVCIS,ioos:station:WAVCIS:CSI06:1,2016-05-06T05:00:00Z,28.8667,-90.4833,10.0,9.99,10.0,,'11111222,11111222,99999999' 
WAVCIS,ioos:station:WAVCIS:CSI06:1,2016-05-06T06:00:00Z,28.8667,-90.4833,10.0,11.56,19.0,,'11111222,11111222,99999999' 
WAVCIS,ioos:station:WAVCIS:CSI06:1,2016-05-06T07:00:00Z,28.8667,-90.4833,10.0,10.72,23.0,,'11111222,11111222,99999999' 
WAVCIS,ioos:station:WAVCIS:CSI06:1,2016-05-06T08:00:00Z,28.8667,-90.4833,10.0,10.77,19.0,,'11111222,11111222,99999999' 
WAVCIS,ioos:station:WAVCIS:CSI06:1,2016-05-06T09:00:00Z,28.8667,-90.4833,10.0,9.52,30.0,,'11111222,11111222,99999999' 
WAVCIS,ioos:station:WAVCIS:CSI06:1,2016-05-06T10:00:00Z,28.8667,-90.4833,10.0,8.83,31.0,,'11111222,11111222,99999999' 
WAVCIS,ioos:station:WAVCIS:CSI06:1,2016-05-06T11:00:00Z,28.8667,-90.4833,10.0,8.93,40.0,,'11111222,11111222,99999999' 
WAVCIS,ioos:station:WAVCIS:CSI06:1,2016-05-06T12:00:00Z,28.8667,-90.4833,10.0,7.22,43.0,,'11111222,11111222,99999999' 
WAVCIS,ioos:station:WAVCIS:CSI06:1,2016-05-06T13:00:00Z,28.8667,-90.4833,10.0,7.12,48.0,,'11111222,11111222,99999999' 
WAVCIS,ioos:station:WAVCIS:CSI06:1,2016-05-06T14:00:00Z,28.8667,-90.4833,10.0,5.714,50.0,,'11111222,11111222,99999999' 
WAVCIS,ioos:station:WAVCIS:CSI06:1,2016-05-06T15:00:00Z,28.8667,-90.4833,10.0,4.025,45.0,,'11111222,11111222,99999999' 
WAVCIS,ioos:station:WAVCIS:CSI06:1,2016-05-06T16:00:00Z,28.8667,-90.4833,10.0,4.605,42.0,,'11111222,11111222,99999999' 
WAVCIS,ioos:station:WAVCIS:CSI06:1,2016-05-06T17:00:00Z,28.8667,-90.4833,10.0,3.784,33.0,,'11111222,11111222,99999999' 
WAVCIS,ioos:station:WAVCIS:CSI06:1,2016-05-06T18:00:00Z,28.8667,-90.4833,10.0,5.241,28.0,,'11111222,11111222,99999999' 
WAVCIS,ioos:station:WAVCIS:CSI06:1,2016-05-06T19:00:00Z,28.8667,-90.4833,10.0,3.488,8.0,,'11111222,11111222,99999999' 
WAVCIS,ioos:station:WAVCIS:CSI06:1,2016-05-06T20:00:00Z,28.8667,-90.4833,10.0,2.745,6.0,,'11111222,11111222,99999999' 
WAVCIS,ioos:station:WAVCIS:CSI06:1,2016-05-06T21:00:00Z,28.8667,-90.4833,10.0,2.045,329.0,,'11111222,11111222,99999999' 
WAVCIS,ioos:station:WAVCIS:CSI06:1,2016-05-06T22:00:00Z,28.8667,-90.4833,10.0,1.986,281.0,,'11111222,11111222,99999999' 
WAVCIS,ioos:station:WAVCIS:CSI06:1,2016-05-06T23:00:00Z,28.8667,-90.4833,10.0,4.864,269.0,,'11111222,11111222,99999999' 
WAVCIS,ioos:station:WAVCIS:CSI06:1,2016-05-07T00:00:00Z,28.8667,-90.4833,10.0,4.617,259.0,,'11111222,11111222,99999999' 
WAVCIS,ioos:station:WAVCIS:CSI06:1,2016-05-07T01:00:00Z,28.8667,-90.4833,10.0,3.847,244.0,,'11111222,11111222,99999999' 
WAVCIS,ioos:station:WAVCIS:CSI06:1,2016-05-07T02:00:00Z,28.8667,-90.4833,10.0,2.854,227.0,,'11111222,11111222,99999999' 
WAVCIS,ioos:station:WAVCIS:CSI06:1,2016-05-07T03:00:00Z,28.8667,-90.4833,10.0,2.714,193.0,,'11111222,11111222,99999999' 
WAVCIS,ioos:station:WAVCIS:CSI06:1,2016-05-07T04:00:00Z,28.8667,-90.4833,10.0,3.39,163.0,,'11111222,11111222,99999999' 
WAVCIS,ioos:station:WAVCIS:CSI06:1,2016-05-07T05:00:00Z,28.8667,-90.4833,10.0,1.077,129.0,,'11111222,11111222,99999999' 
WAVCIS,ioos:station:WAVCIS:CSI06:1,2016-05-07T06:00:00Z,28.8667,-90.4833,10.0,1.678,27.0,,'11111222,11111222,99999999' 
WAVCIS,ioos:station:WAVCIS:CSI06:1,2016-05-07T07:00:00Z,28.8667,-90.4833,10.0,0.457,5.0,,'11111222,11111222,99999999' 
WAVCIS,ioos:station:WAVCIS:CSI06:1,2016-05-07T08:00:00Z,28.8667,-90.4833,10.0,1.257,123.0,,'11111222,11111222,99999999' 
WAVCIS,ioos:station:WAVCIS:CSI06:1,2016-05-07T09:00:00Z,28.8667,-90.4833,10.0,1.776,123.0,,'11111222,11111222,99999999' 
WAVCIS,ioos:station:WAVCIS:CSI06:1,2016-05-07T10:00:00Z,28.8667,-90.4833,10.0,1.791,135.0,,'11111222,11111222,99999999' 
WAVCIS,ioos:station:WAVCIS:CSI06:1,2016-05-07T11:00:00Z,28.8667,-90.4833,10.0,1.495,106.0,,'11111222,11111222,99999999' 
WAVCIS,ioos:station:WAVCIS:CSI06:1,2016-05-07T12:00:00Z,28.8667,-90.4833,10.0,1.996,104.0,,'11111222,11111222,99999999' 
WAVCIS,ioos:station:WAVCIS:CSI06:1,2016-05-07T13:00:00Z,28.8667,-90.4833,10.0,1.889,113.0,,'11111222,11111222,99999999' 
WAVCIS,ioos:station:WAVCIS:CSI06:1,2016-05-07T14:00:00Z,28.8667,-90.4833,10.0,2.401,116.0,,'11111222,11111222,99999999' 
WAVCIS,ioos:station:WAVCIS:CSI06:1,2016-05-07T15:00:00Z,28.8667,-90.4833,10.0,2.507,101.0,,'11111222,11111222,99999999' 
WAVCIS,ioos:station:WAVCIS:CSI06:1,2016-05-07T16:00:00Z,28.8667,-90.4833,10.0,1.703,108.0,,'11111222,11111222,99999999' 
WAVCIS,ioos:station:WAVCIS:CSI06:1,2016-05-07T17:00:00Z,28.8667,-90.4833,10.0,3.339,100.0,,'11111222,11111222,99999999' 
WAVCIS,ioos:station:WAVCIS:CSI06:1,2016-05-07T18:00:00Z,28.8667,-90.4833,10.0,3.021,122.0,,'11111222,11111222,99999999' 
WAVCIS,ioos:station:WAVCIS:CSI06:1,2016-05-07T19:00:00Z,28.8667,-90.4833,10.0,3.136,117.0,,'11111222,11111222,99999999' 
WAVCIS,ioos:station:WAVCIS:CSI06:1,2016-05-07T20:00:00Z,28.8667,-90.4833,10.0,3.428,114.0,,'11111222,11111222,99999999' 
WAVCIS,ioos:station:WAVCIS:CSI06:1,2016-05-07T21:00:00Z,28.8667,-90.4833,10.0,2.343,134.0,,'11111222,11111222,99999999' 
WAVCIS,ioos:station:WAVCIS:CSI06:1,2016-05-07T22:00:00Z,28.8667,-90.4833,10.0,2.372,120.0,,'11111222,11111222,99999999' 
WAVCIS,ioos:station:WAVCIS:CSI06:1,2016-05-07T23:00:00Z,28.8667,-90.4833,10.0,2.105,160.0,,'11111222,11111222,99999999' 
WAVCIS,ioos:station:WAVCIS:CSI06:1,2016-05-08T00:00:00Z,28.8667,-90.4833,10.0,2.522,139.0,,'11111222,11111222,99999999' 
WAVCIS,ioos:station:WAVCIS:CSI06:1,2016-05-08T01:00:00Z,28.8667,-90.4833,10.0,2.295,180.0,,'11111222,11111222,99999999' 
WAVCIS,ioos:station:WAVCIS:CSI06:1,2016-05-08T02:00:00Z,28.8667,-90.4833,10.0,2.244,175.0,,'11111222,11111222,99999999' 
WAVCIS,ioos:station:WAVCIS:CSI06:1,2016-05-08T03:00:00Z,28.8667,-90.4833,10.0,2.57,169.0,,'11111222,11111222,99999999' 
WAVCIS,ioos:station:WAVCIS:CSI06:1,2016-05-08T04:00:00Z,28.8667,-90.4833,10.0,3.043,201.0,,'11111222,11111222,99999999' 
WAVCIS,ioos:station:WAVCIS:CSI06:1,2016-05-08T05:00:00Z,28.8667,-90.4833,10.0,3.123,198.0,,'11111222,11111222,99999999' 
WAVCIS,ioos:station:WAVCIS:CSI06:1,2016-05-08T06:00:00Z,28.8667,-90.4833,10.0,3.262,188.0,,'11111222,11111222,99999999' 
WAVCIS,ioos:station:WAVCIS:CSI06:1,2016-05-08T07:00:00Z,28.8667,-90.4833,10.0,3.633,187.0,,'11111222,11111222,99999999' 
WAVCIS,ioos:station:WAVCIS:CSI06:1,2016-05-08T08:00:00Z,28.8667,-90.4833,10.0,3.267,204.0,,'11111222,11111222,99999999' 
WAVCIS,ioos:station:WAVCIS:CSI06:1,2016-05-08T09:00:00Z,28.8667,-90.4833,10.0,2.643,195.0,,'11111222,11111222,99999999' 
WAVCIS,ioos:station:WAVCIS:CSI06:1,2016-05-08T10:00:00Z,28.8667,-90.4833,10.0,2.245,169.0,,'11111222,11111222,99999999' 
WAVCIS,ioos:station:WAVCIS:CSI06:1,2016-05-08T11:00:00Z,28.8667,-90.4833,10.0,3.078,168.0,,'11111222,11111222,99999999' 
WAVCIS,ioos:station:WAVCIS:CSI06:1,2016-05-08T12:00:00Z,28.8667,-90.4833,10.0,3.264,148.0,,'11111222,11111222,99999999' 
WAVCIS,ioos:station:WAVCIS:CSI06:1,2016-05-08T13:00:00Z,28.8667,-90.4833,10.0,3.119,174.0,,'11111222,11111222,99999999' 
WAVCIS,ioos:station:WAVCIS:CSI06:1,2016-05-08T14:00:00Z,28.8667,-90.4833,10.0,4.488,149.0,,'11111222,11111222,99999999' 
WAVCIS,ioos:station:WAVCIS:CSI06:1,2016-05-08T15:00:00Z,28.8667,-90.4833,10.0,4.602,154.0,,'11111222,11111222,99999999' 
WAVCIS,ioos:station:WAVCIS:CSI06:1,2016-05-08T16:00:00Z,28.8667,-90.4833,10.0,4.526,149.0,,'11111222,11111222,99999999' 
WAVCIS,ioos:station:WAVCIS:CSI06:1,2016-05-08T17:00:00Z,28.8667,-90.4833,10.0,5.392,139.0,,'11111222,11111222,99999999' 
WAVCIS,ioos:station:WAVCIS:CSI06:1,2016-05-08T18:00:00Z,28.8667,-90.4833,10.0,5.502,142.0,,'11111222,11111222,99999999' 
WAVCIS,ioos:station:WAVCIS:CSI06:1,2016-05-08T19:00:00Z,28.8667,-90.4833,10.0,5.234,139.0,,'11111222,11111222,99999999' 
WAVCIS,ioos:station:WAVCIS:CSI06:1,2016-05-08T20:00:00Z,28.8667,-90.4833,10.0,5.441,138.0,,'11111222,11111222,99999999' 
WAVCIS,ioos:station:WAVCIS:CSI06:1,2016-05-08T21:00:00Z,28.8667,-90.4833,10.0,5.649,146.0,,'11111222,11111222,99999999' 
WAVCIS,ioos:station:WAVCIS:CSI06:1,2016-05-08T22:00:00Z,28.8667,-90.4833,10.0,5.058,151.0,,'11111222,11111222,99999999' 
WAVCIS,ioos:station:WAVCIS:CSI06:1,2016-05-08T23:00:00Z,28.8667,-90.4833,10.0,4.402,145.0,,'11111222,11111222,99999999' 
WAVCIS,ioos:station:WAVCIS:CSI06:1,2016-05-09T00:00:00Z,28.8667,-90.4833,10.0,4.629,134.0,,'11111222,11111222,99999999' 
WAVCIS,ioos:station:WAVCIS:CSI06:1,2016-05-09T01:00:00Z,28.8667,-90.4833,10.0,6.212,126.0,,'11111222,11111222,99999999' 
WAVCIS,ioos:station:WAVCIS:CSI06:1,2016-05-09T02:00:00Z,28.8667,-90.4833,10.0,7.38,122.0,,'11111222,11111222,99999999' 
WAVCIS,ioos:station:WAVCIS:CSI06:1,2016-05-09T03:00:00Z,28.8667,-90.4833,10.0,8.62,120.0,,'11111222,11111222,99999999' 
WAVCIS,ioos:station:WAVCIS:CSI06:1,2016-05-09T04:00:00Z,28.8667,-90.4833,10.0,8.58,127.0,,'11111222,11111222,99999999' 
WAVCIS,ioos:station:WAVCIS:CSI06:1,2016-05-09T05:00:00Z,28.8667,-90.4833,10.0,8.95,122.0,,'11111222,11111222,99999999' 
WAVCIS,ioos:station:WAVCIS:CSI06:1,2016-05-09T06:00:00Z,28.8667,-90.4833,10.0,9.16,147.0,,'11111222,11111222,99999999' 
WAVCIS,ioos:station:WAVCIS:CSI06:1,2016-05-09T07:00:00Z,28.8667,-90.4833,10.0,8.2,157.0,,'11111222,11111222,99999999' 
WAVCIS,ioos:station:WAVCIS:CSI06:1,2016-05-09T08:00:00Z,28.8667,-90.4833,10.0,7.37,187.0,,'11111222,11111222,99999999' 
WAVCIS,ioos:station:WAVCIS:CSI06:1,2016-05-09T09:00:00Z,28.8667,-90.4833,10.0,9.66,176.0,,'11111222,11111222,99999999' 
WAVCIS,ioos:station:WAVCIS:CSI06:1,2016-05-09T10:00:00Z,28.8667,-90.4833,10.0,7.53,171.0,,'11111222,11111222,99999999' 
WAVCIS,ioos:station:WAVCIS:CSI06:1,2016-05-09T11:00:00Z,28.8667,-90.4833,10.0,7.16,176.0,,'11111222,11111222,99999999' 
WAVCIS,ioos:station:WAVCIS:CSI06:1,2016-05-09T12:00:00Z,28.8667,-90.4833,10.0,6.778,160.0,,'11111222,11111222,99999999' 
WAVCIS,ioos:station:WAVCIS:CSI06:1,2016-05-09T13:00:00Z,28.8667,-90.4833,10.0,7.29,156.0,,'11111222,11111222,99999999' 
WAVCIS,ioos:station:WAVCIS:CSI06:1,2016-05-09T14:00:00Z,28.8667,-90.4833,10.0,7.17,142.0,,'11111222,11111222,99999999' 
WAVCIS,ioos:station:WAVCIS:CSI06:1,2016-05-09T15:00:00Z,28.8667,-90.4833,10.0,9.66,148.0,,'11111222,11111222,99999999' 
WAVCIS,ioos:station:WAVCIS:CSI06:1,2016-05-09T16:00:00Z,28.8667,-90.4833,10.0,9.69,148.0,,'11111222,11111222,99999999' 
WAVCIS,ioos:station:WAVCIS:CSI06:1,2016-05-09T17:00:00Z,28.8667,-90.4833,10.0,9.47,152.0,,'11111222,11111222,99999999' 
WAVCIS,ioos:station:WAVCIS:CSI06:1,2016-05-09T18:00:00Z,28.8667,-90.4833,10.0,9.46,152.0,,'11111222,11111222,99999999' 
WAVCIS,ioos:station:WAVCIS:CSI06:1,2016-05-09T19:00:00Z,28.8667,-90.4833,10.0,8.57,163.0,,'11111222,11111222,99999999' 
WAVCIS,ioos:station:WAVCIS:CSI06:1,2016-05-09T20:00:00Z,28.8667,-90.4833,10.0,9.31,149.0,,'11111222,11111222,99999999' 
WAVCIS,ioos:station:WAVCIS:CSI06:1,2016-05-09T21:00:00Z,28.8667,-90.4833,10.0,11.25,145.0,,'11111222,11111222,99999999' 
WAVCIS,ioos:station:WAVCIS:CSI06:1,2016-05-09T22:00:00Z,28.8667,-90.4833,10.0,10.18,160.0,,'11111222,11111222,99999999' 
WAVCIS,ioos:station:WAVCIS:CSI06:1,2016-05-09T23:00:00Z,28.8667,-90.4833,10.0,10.57,155.0,,'11111222,11111222,99999999' 
WAVCIS,ioos:station:WAVCIS:CSI06:1,2016-05-10T00:00:00Z,28.8667,-90.4833,10.0,7.6,164.0,,'11111222,11111222,99999999' 
WAVCIS,ioos:station:WAVCIS:CSI06:1,2016-05-10T01:00:00Z,28.8667,-90.4833,10.0,6.84,164.0,,'11111222,11111222,99999999' 
WAVCIS,ioos:station:WAVCIS:CSI06:1,2016-05-10T02:00:00Z,28.8667,-90.4833,10.0,5.826,164.0,,'11111222,11111222,99999999' 
WAVCIS,ioos:station:WAVCIS:CSI06:1,2016-05-10T03:00:00Z,28.8667,-90.4833,10.0,5.16,159.0,,'11111222,11111222,99999999' 
WAVCIS,ioos:station:WAVCIS:CSI06:1,2016-05-10T04:00:00Z,28.8667,-90.4833,10.0,5.302,150.0,,'11111222,11111222,99999999' 
WAVCIS,ioos:station:WAVCIS:CSI06:1,2016-05-10T05:00:00Z,28.8667,-90.4833,10.0,6.191,150.0,,'11111222,11111222,99999999' 
WAVCIS,ioos:station:WAVCIS:CSI06:1,2016-05-10T06:00:00Z,28.8667,-90.4833,10.0,5.544,151.0,,'11111222,11111222,99999999' 
WAVCIS,ioos:station:WAVCIS:CSI06:1,2016-05-10T07:00:00Z,28.8667,-90.4833,10.0,5.392,157.0,,'11111222,11111222,99999999' 
WAVCIS,ioos:station:WAVCIS:CSI06:1,2016-05-10T08:00:00Z,28.8667,-90.4833,10.0,4.095,168.0,,'11111222,11111222,99999999' 
WAVCIS,ioos:station:WAVCIS:CSI06:1,2016-05-10T09:00:00Z,28.8667,-90.4833,10.0,4.069,150.0,,'11111222,11111222,99999999' 
WAVCIS,ioos:station:WAVCIS:CSI06:1,2016-05-10T10:00:00Z,28.8667,-90.4833,10.0,4.144,139.0,,'11111222,11111222,99999999' 
WAVCIS,ioos:station:WAVCIS:CSI06:1,2016-05-10T11:00:00Z,28.8667,-90.4833,10.0,5.542,133.0,,'11111222,11111222,99999999' 
WAVCIS,ioos:station:WAVCIS:CSI06:1,2016-05-10T12:00:00Z,28.8667,-90.4833,10.0,5.852,142.0,,'11111222,11111222,99999999' 
WAVCIS,ioos:station:WAVCIS:CSI06:1,2016-05-10T13:00:00Z,28.8667,-90.4833,10.0,6.619,140.0,,'11111222,11111222,99999999' 
WAVCIS,ioos:station:WAVCIS:CSI06:1,2016-05-10T14:00:00Z,28.8667,-90.4833,10.0,7.17,138.0,,'11111222,11111222,99999999' 
WAVCIS,ioos:station:WAVCIS:CSI06:1,2016-05-10T15:00:00Z,28.8667,-90.4833,10.0,7.09,147.0,,'11111222,11111222,99999999' 
WAVCIS,ioos:station:WAVCIS:CSI06:1,2016-05-10T16:00:00Z,28.8667,-90.4833,10.0,7.92,152.0,,'11111222,11111222,99999999' 
WAVCIS,ioos:station:WAVCIS:CSI06:1,2016-05-10T17:00:00Z,28.8667,-90.4833,10.0,7.96,153.0,,'11111222,11111222,99999999' 
WAVCIS,ioos:station:WAVCIS:CSI06:1,2016-05-10T18:00:00Z,28.8667,-90.4833,10.0,7.39,156.0,,'11111222,11111222,99999999' 
WAVCIS,ioos:station:WAVCIS:CSI06:1,2016-05-10T19:00:00Z,28.8667,-90.4833,10.0,7.41,158.0,,'11111222,11111222,99999999' 